Regional Weather Roundup
Issued by NWS

Home | Current Version | Previous Version | Graphics & Text | Print | Product List | Glossary On
Versions: 1 2 3 4 5 6 7 8 9 10 11 12 13 14 15 16 17 18 19 20 21 22 23 24 25 26 27 28 29 30 31 32 33 34 35 36 37 38 39 40 41 42 43 44 45 46 47 48 49 50
000
ASUS43 KIND 241309
RWRIN

WEATHER ROUNDUP FOR INDIANA
NATIONAL WEATHER SERVICE INDIANAPOLIS IN
900 AM EDT SAT JUN 24 2017

NOTE: "FAIR" INDICATES FEW OR NO CLOUDS BELOW 12,000 FEET WITH NO
SIGNIFICANT WEATHER AND/OR OBSTRUCTIONS TO VISIBILITY.

* - STATION DOES NOT REPORT WEATHER SUCH AS PRECIPITATION OR FOG.

+ - STATION NOT QUALITY CONTROLLED BY THE NATIONAL WEATHER SERVICE.
    USE DATA WITH CAUTION...ESPECIALLY DEWPOINT AND RELATIVE
    HUMIDITY OBSERVATIONS.

INZ001>003-010>013-019-020-241400-
NORTHWEST INDIANA

CITY           SKY/WX    TMP DP  RH WIND       PRES   REMARKS
GARY /AIRPORT/ SUNNY     68  55  64 W9        29.93R
KNOX *+        SUNNY     63  52  67 W9        29.93R
LA PORTE +     MOSUNNY   66  56  70 W8G16     29.93R
MICHIGAN CITY+ SUNNY     64  55  72 NW8G16    29.93R
MONTICELLO +   SUNNY     65  58  80 W8        29.95R
VALPARAISO     SUNNY     67  57  70 NW7       29.94R

$$

LMZ046-743>745-241400-
SOUTHERN LAKE MICHIGAN

STATION/POSITION TIME  TEMP    WIND        PRES    WAVE
                       AIR SEA DIR/SP/G            HT
                 (UTC) (F)     (DEG/KT/KT) (MB)    (FT)
BURNS HARBOR     1240   64     280/ 11/ 13 1013.9R
MICHIGAN CITY    1240   65     270/ 15/ 17   N/A
5NW MICH CITY    1300   65 68  290/ 12/ 16   N/A     3

$$

INZ004-005-014>016-021>024-241400-
NORTH CENTRAL INDIANA

CITY           SKY/WX    TMP DP  RH WIND       PRES   REMARKS
ELKHART        SUNNY     66  57  72 W8        29.91R
GOSHEN         SUNNY     66  56  70 W9        29.91R
LOGANSPORT +   SUNNY     64  57  77 W8        29.96R
PERU/GRISSOM   SUNNY     65  60  82 W9        29.95R
ROCHESTER +    SUNNY     68  59  73 W8        29.94R
SOUTH BEND     SUNNY     66  58  75 W13       29.91R
WARSAW +       SUNNY     64  55  72 W9        29.92S

$$

INZ006>009-017-018-025>027-241400-
NORTHEAST INDIANA

CITY           SKY/WX    TMP DP  RH WIND       PRES   REMARKS
AUBURN +       SUNNY     68  55  64 W9        29.92R
FORT WAYNE     MOSUNNY   68  57  68 W12       29.93R
HUNTINGTON +   SUNNY     65  58  79 W7        29.94R
KENDALLVILLE + SUNNY    N/A N/A N/A W8        29.91S

$$

INZ028-029-035-036-043>045-051>053-241400-
WEST CENTRAL INDIANA

CITY           SKY/WX    TMP DP  RH WIND       PRES   REMARKS
CRAWFORDSVL +  SUNNY     63  60  90 W9        29.99R
GREENCASTLE +  SUNNY     64  55  72 NW7       30.01R
LAFAYETTE      SUNNY     65  59  81 W9        29.97R
TERRE HAUTE    SUNNY     67  57  70 NW8       30.01R

$$

INZ030>032-037>040-046>048-054>057-064-065-241400-
CENTRAL INDIANA

CITY           SKY/WX    TMP DP  RH WIND       PRES   REMARKS
ANDERSON       SUNNY     64  57  77 MISG        N/A
CP ATTERBURY + SUNNY     66  59  77 NW6       29.99R
COLUMBUS       MOSUNNY   64  57  77 NW9       29.99R
FRANKFORT +    MOSUNNY   67  60  78 W8        29.99R
GREENWOOD *+   SUNNY     66  57  73 NW9G22    29.99R
INDIANAPOLIS   MOSUNNY   67  58  72 NW8       29.98R
-EAGLE CREEK   SUNNY     67  57  70 NW10      29.97R
KOKOMO +       SUNNY     65  59  81 W12       29.97R
MARION +       SUNNY     64  57  77 W9        29.96R
MT COMFORT *+  SUNNY     64  57  77 NW8       29.97R
SHELBYVILLE    SUNNY     68  57  68 NW9       29.97R
ZIONSVILLE +   SUNNY     64  58  81 W8        29.99R

$$

INZ033-034-041-042-049-050-058-059-241400-
EAST CENTRAL INDIANA

CITY           SKY/WX    TMP DP  RH WIND       PRES   REMARKS
MUNCIE         SUNNY     68  58  70 NW7       29.96R

$$

INZ060-061-067>069-081>083-085>088-241400-
SOUTHWEST INDIANA

CITY           SKY/WX    TMP DP  RH WIND       PRES   REMARKS
EVANSVILLE     SUNNY     69  59  70 NW6       30.04R
HUNTINGBURG *+ MOSUNNY   68  60  75 NW8       30.03R
WASHINGTON +   SUNNY     67  58  73 NW6       30.02R

$$

INZ062-063-066-070>080-084-089>092-241400-
SOUTH CENTRAL AND SOUTHEAST INDIANA

CITY           SKY/WX    TMP DP  RH WIND       PRES   REMARKS
BEDFORD +      SUNNY     66  57  72 W5        30.00R
BLOOMINGTON    SUNNY     66  57  72 W8        30.01R
MADISON *+     MOSUNNY   64  61  88 W5        30.02R
NORTH VERNON + MOSUNNY   64  59  82 W3        30.00R
SEYMOUR +      CLOUDY    68  59  73 NW5       30.00R

$$





USA.gov is the U.S. government's official web portal to all federal, state and local government web resources and services.